Hourly Data Report for October 12, 2003

TORONTO CITY
ONTARIO

43°40'00.000" N
79°24'00.000" W
112.50 m
6158355
71508
XTO

Download Data

Hourly Data (October 2003)
Hourly Data Report for October 12, 2003
TIME
LST
Temp Definition
°C
Dew Point Definition
°C
Rel Hum Definition
%
Precip. Amount Definition
mm

Wind Dir Definition
10's deg

Wind Spd Definition
km/h
Visibility Definition
km
Stn Press Definition
kPa
Hmdx Definition


Wind Chill Definition


Weather Definition


00:00 14.2 12.6 90   LegendMM LegendMM LegendMM 100.10     LegendNANA
01:00 12.9 12.0 94   LegendMM LegendMM LegendMM 100.04     LegendNANA
02:00 12.9 12.2 96   LegendMM LegendMM LegendMM 99.95     LegendNANA
03:00 13.0 11.6 91   LegendMM LegendMM LegendMM 99.88     LegendNANA
04:00 12.6 11.1 91   LegendMM LegendMM LegendMM 99.81     LegendNANA
05:00 13.4 11.6 89   LegendMM LegendMM LegendMM 99.80     LegendNANA
06:00 14.4 11.3 82   LegendMM LegendMM LegendMM 99.74     LegendNANA
07:00 15.0 11.2 78   LegendMM LegendMM LegendMM 99.70     LegendNANA
08:00 15.4 12.1 81   LegendMM LegendMM LegendMM 99.67     LegendNANA
09:00 15.3 12.4 83   LegendMM LegendMM LegendMM 99.66     LegendNANA
10:00 15.8 13.1 84   LegendMM LegendMM LegendMM 99.64     LegendNANA
11:00 17.5 14.1 80   LegendMM LegendMM LegendMM 99.64     LegendNANA
12:00 17.1 11.8 71   LegendMM LegendMM LegendMM 99.66     LegendNANA
13:00 19.3 9.9 54   LegendMM LegendMM LegendMM 99.64     LegendNANA
14:00 19.5 7.9 47   LegendMM LegendMM LegendMM 99.66     LegendNANA
15:00 18.4 6.3 45   LegendMM LegendMM LegendMM 99.68     LegendNANA
16:00 17.7 5.3 44   LegendMM LegendMM LegendMM 99.77     LegendNANA
17:00 16.8 6.4 50   LegendMM LegendMM LegendMM 99.82     LegendNANA
18:00 15.9 6.5 54   LegendMM LegendMM LegendMM 99.88     LegendNANA
19:00 14.8 7.1 60   LegendMM LegendMM LegendMM 99.98     LegendNANA
20:00 13.5 7.3 66   LegendMM LegendMM LegendMM 100.01     LegendNANA
21:00 11.6 7.2 74   LegendMM LegendMM LegendMM 100.03     LegendNANA
22:00 10.7 7.6 81   LegendMM LegendMM LegendMM 100.04     LegendNANA
23:00 11.6 7.6 76   LegendMM LegendMM LegendMM 100.06     LegendNANA

Notes on Data Quality.

Legend

  • E = Estimated
  • M = Missing
  • NA = Not Available*
  • [empty] = Indicates an unobserved value
Date modified: